EW5954 Weather Reports


Display with metric or nautical units.
time (UTC)temp
F
wind
direction
speed
MPH
gust
MPH
rain 1hr
in
rain 24hr
in
rain mn
in
humidity
%
barometer
mb
20260903001438 69 30 0.0 1.0 0.00 1.38 1.38 99
20260903000932 68 342 0.0 0.0 0.12 1.38 1.38 99
20260903000428 68 246 2.0 3.0 0.07 1.37 1.37 99
20260902235925 68 344 0.0 1.0 0.00 1.36 1.36 99
20260902235420 68 274 0.0 0.0 0.00 1.36 1.36 99
20260902234915 68 225 0.0 2.0 0.00 1.36 1.36 99
20260902234410 68 248 2.0 3.0 0.00 1.36 1.36 99
20260902233909 69 292 2.0 2.0 0.00 1.36 1.36 99
20260902233403 69 323 0.0 1.0 0.00 1.36 1.36 99
20260902232902 69 359 0.0 1.0 0.07 1.36 1.36 99
20260902232357 69 346 0.0 2.0 0.07 1.36 1.36 99
20260902231857 69 107 0.0 1.0 0.00 1.35 1.35 99
20260902231352 69 343 0.0 1.0 0.05 1.35 1.35 99
20260902230847 69 352 0.0 0.0 0.12 1.35 1.35 99
20260902230346 69 355 0.0 0.0 0.12 1.34 1.34 99
20260902225840 69 353 0.0 0.0 0.05 1.33 1.33 99
20260902225336 69 355 0.0 1.0 0.00 1.32 1.32 99
20260902224833 69 353 0.0 0.0 0.07 1.32 1.32 99
20260902224329 69 2 0.0 0.0 0.07 1.32 1.32 99
20260902223825 69 351 0.0 2.0 0.00 1.31 1.31 99
20260902223319 68 209 1.0 2.0 0.28 1.31 1.31 99
20260902222814 68 337 1.0 6.0 0.78 1.30 1.30 99
20260902222312 68 19 2.0 6.0 1.49 1.25 1.25 99
20260902221807 68 98 3.0 8.0 1.44 1.14 1.14 99
20260902221306 69 216 2.0 9.0 1.49 0.99 0.99 98
20260902220802 71 56 6.0 9.0 2.72 0.89 0.89 98
20260902220301 71 40 8.0 14.0 2.81 0.68 0.68 97
20260902215757 71 59 3.0 7.0 1.37 0.38 0.38 96
20260902215252 72 356 0.0 1.0 0.24 0.19 0.19 94
20260902214748 72 10 0.0 2.0 0.00 0.15 0.15 94
20260902214247 72 151 3.0 5.0 0.00 0.15 0.15 94
20260902213743 73 346 1.0 1.0 0.00 0.15 0.15 95
20260902213242 74 8 0.0 1.0 0.00 0.15 0.15 94
20260902212741 74 349 0.0 3.0 0.00 0.15 0.15 93
20260902212238 75 240 3.0 5.0 0.61 0.15 0.15 92
20260902211734 76 338 1.0 2.0 0.54 0.14 0.14 90
20260902211230 79 300 1.0 6.0 0.05 0.05 0.05 86
20260902210730 83 358 0.0 0.0 0.05 0.05 0.05 85
20260902210225 84 40 0.0 2.0 0.00 0.04 0.04 83
20260902205723 84 10 1.0 2.0 0.00 0.04 0.04 82
20260902205218 85 358 1.0 2.0 0.00 0.04 0.04 80
20260902204714 85 354 3.0 5.0 0.00 0.04 0.04 80
20260902204209 85 307 2.0 5.0 0.00 0.04 0.04 80
20260902203703 85 6 1.0 6.0 0.00 0.04 0.04 79
20260902203158 85 28 0.0 1.0 0.00 0.04 0.04 80
20260902202653 85 231 1.0 5.0 0.00 0.04 0.04 80
20260902202150 86 253 5.0 7.0 0.00 0.04 0.04 79
20260902201646 86 324 1.0 5.0 0.00 0.04 0.04 80
20260902201144 86 272 1.0 3.0 0.00 0.04 0.04 80
20260902200639 86 255 3.0 8.0 0.00 0.04 0.04 79
20260902200135 86 29 1.0 6.0 0.00 0.04 0.04 79
20260902195631 86 191 3.0 6.0 0.00 0.04 0.04 78
20260902195131 86 280 1.0 5.0 0.00 0.04 0.04 79
20260902194629 86 293 4.0 7.0 0.00 0.04 0.04 80
20260902194125 87 263 3.0 3.0 0.00 0.04 0.04 77
20260902193620 86 39 2.0 3.0 0.00 0.04 0.04 79
20260902193115 85 291 0.0 1.0 0.00 0.04 0.04 80
20260902192613 85 287 0.0 1.0 0.00 0.04 0.04 81
20260902192113 85 25 1.0 2.0 0.00 0.04 0.04 81
20260902191608 85 343 0.0 2.0 0.00 0.04 0.04 82
20260902191102 84 15 1.0 1.0 0.00 0.04 0.04 82
20260902190558 84 107 1.0 3.0 0.00 0.04 0.04 82
20260902190053 84 337 0.0 2.0 0.00 0.04 0.04 82
20260902185549 84 264 2.0 2.0 0.00 0.04 0.04 82
20260902185044 84 319 1.0 1.0 0.00 0.04 0.04 82
20260902184539 84 4 4.0 7.0 0.00 0.04 0.04 82
20260902184034 85 162 1.0 5.0 0.00 0.04 0.04 81
20260902183531 85 18 1.0 3.0 0.00 0.04 0.04 81
20260902183027 84 45 0.0 1.0 0.00 0.04 0.04 83
20260902182523 84 34 1.0 2.0 0.00 0.04 0.04 82
20260902182019 84 29 0.0 5.0 0.00 0.04 0.04 82
20260902181514 84 35 2.0 5.0 0.00 0.04 0.04 81
20260902181008 85 52 2.0 3.0 0.00 0.04 0.04 81
20260902180503 84 5 2.0 3.0 0.00 0.04 0.04 81
20260902175958 84 197 1.0 2.0 0.00 0.04 0.04 83
20260902175453 83 179 1.0 5.0 0.00 0.04 0.04 83
20260902174949 83 274 2.0 3.0 0.00 0.04 0.04 83
20260902174446 84 256 2.0 2.0 0.00 0.04 0.04 82
20260902173941 84 56 2.0 3.0 0.00 0.04 0.04 82
20260902173440 84 325 1.0 5.0 0.00 0.04 0.04 83
20260902172936 83 209 3.0 3.0 0.00 0.04 0.04 83
20260902172434 82 328 2.0 5.0 0.00 0.04 0.04 85
20260902171930 83 254 3.0 6.0 0.00 0.04 0.04 84
20260902171425 83 3 1.0 2.0 0.00 0.04 0.04 84
20260902170921 83 25 0.0 6.0 0.00 0.04 0.04 85
20260902170416 82 273 2.0 3.0 0.00 0.04 0.04 87
20260902165912 81 345 1.0 6.0 0.00 0.04 0.04 88
20260902165411 80 128 2.0 5.0 0.00 0.04 0.04 89
20260902164906 79 237 3.0 3.0 0.00 0.04 0.04 90
20260902164401 78 256 1.0 3.0 0.00 0.04 0.04 91
20260902163900 78 257 2.0 3.0 0.00 0.04 0.04 92
20260902163355 77 352 2.0 3.0 0.00 0.04 0.04 92
20260902162853 77 333 1.0 3.0 0.00 0.04 0.04 93
20260902162349 76 55 2.0 5.0 0.00 0.04 0.04 94
20260902161849 75 304 2.0 6.0 0.00 0.04 0.04 95
20260902161344 75 252 1.0 2.0 0.00 0.04 0.04 95
20260902160840 74 260 3.0 3.0 0.00 0.04 0.04 95
20260902160335 75 184 2.0 3.0 0.00 0.04 0.04 95
20260902155833 73 3 0.0 5.0 0.19 0.04 0.04 97
20260902155332 73 306 0.0 2.0 0.19 0.04 0.04 96
20260902154827 73 343 0.0 0.0 0.05 0.01 0.01 95
20260902154323 73 305 0.0 1.0 0.05 0.01 0.01 94
20260902153822 73 0 0.0 1.0 0.00 0.00 0.00 94
20260902153321 73 289 0.0 2.0 0.00 0.00 0.00 93
20260902152817 73 340 0.0 2.0 0.00 0.00 0.00 93
20260902152313 73 326 1.0 3.0 0.00 0.00 0.00 92
20260902151808 74 245 2.0 5.0 0.00 0.00 0.00 92
20260902151303 74 314 2.0 3.0 0.00 0.00 0.00 91
20260902150758 73 343 0.0 5.0 0.00 0.00 0.00 91
20260902150254 73 305 1.0 2.0 0.00 0.00 0.00 92
20260902145753 73 333 2.0 3.0 0.00 0.00 0.00 92
20260902145248 73 318 2.0 3.0 0.00 0.00 0.00 92
20260902144744 73 268 3.0 5.0 0.00 0.00 0.00 92
20260902144240 73 313 2.0 5.0 0.00 0.00 0.00 93
20260902143734 73 309 1.0 3.0 0.00 0.00 0.00 92
20260902143230 73 272 3.0 5.0 0.00 0.00 0.00 93
20260902142720 72 273 3.0 5.0 0.00 0.00 0.00 93
20260902142215 72 272 3.0 5.0 0.00 0.00 0.00 94
20260902141710 72 266 3.0 3.0 0.00 0.00 0.00 94
20260902141205 72 227 2.0 5.0 0.00 0.00 0.00 95
20260902140700 71 317 3.0 5.0 0.00 0.00 0.00 96
20260902140155 71 334 1.0 3.0 0.00 0.00 0.00 97
20260902135654 71 299 3.0 3.0 0.00 0.00 0.00 97
20260902135149 71 272 3.0 5.0 0.00 0.00 0.00 98
20260902134645 71 247 3.0 5.0 0.00 0.00 0.00 98
20260902134144 71 302 3.0 3.0 0.00 0.00 0.00 99
20260902133639 71 297 2.0 5.0 0.00 0.00 0.00 99
20260902133133 71 313 1.0 3.0 0.00 0.00 0.00 99
20260902132629 71 210 1.0 2.0 0.00 0.00 0.00 99
20260902132124 71 276 2.0 3.0 0.00 0.00 0.00 99
20260902131621 71 269 1.0 3.0 0.00 0.00 0.00 99
20260902131115 71 332 0.0 1.0 0.00 0.00 0.00 99
20260902130611 71 323 0.0 2.0 0.00 0.00 0.00 99
20260902130106 71 292 1.0 1.0 0.00 0.00 0.00 99
20260902125602 71 283 1.0 2.0 0.00 0.00 0.00 99
20260902125057 71 314 0.0 3.0 0.00 0.00 0.00 99
20260902124554 71 280 1.0 2.0 0.00 0.00 0.00 99
20260902124054 71 307 0.0 2.0 0.00 0.00 0.00 99
20260902123549 71 289 0.0 0.0 0.00 0.00 0.00 99
20260902123044 71 318 0.0 1.0 0.00 0.00 0.00 99
20260902122544 71 337 0.0 1.0 0.00 0.00 0.00 99
20260902122039 71 229 0.0 1.0 0.00 0.00 0.00 99
20260902121534 70 318 0.0 1.0 0.00 0.00 0.00 99
20260902121029 70 321 0.0 0.0 0.00 0.00 0.00 99
20260902120525 70 303 0.0 0.0 0.00 0.00 0.00 99
20260902120021 70 347 0.0 0.0 0.00 0.00 0.00 99
20260902115516 70 298 0.0 0.0 0.00 0.00 0.00 99
20260902115012 70 347 0.0 0.0 0.00 0.00 0.00 99
20260902114507 70 351 0.0 0.0 0.00 0.00 0.00 99
20260902114002 70 318 0.0 0.0 0.00 0.00 0.00 99
20260902113458 70 342 0.0 0.0 0.00 0.00 0.00 99
20260902112957 70 343 0.0 1.0 0.00 0.00 0.00 99
20260902112453 70 355 0.0 0.0 0.00 0.00 0.00 99
20260902111949 70 354 0.0 1.0 0.00 0.00 0.00 99
20260902111446 70 345 1.0 3.0 0.00 0.00 0.00 99
20260902110941 70 353 1.0 1.0 0.00 0.00 0.00 99
20260902110437 70 354 0.0 0.0 0.00 0.00 0.00 99
20260902105932 70 359 0.0 1.0 0.00 0.00 0.00 99
20260902105427 70 19 0.0 2.0 0.00 0.00 0.00 99
20260902104921 70 358 0.0 0.0 0.00 0.00 0.00 99
20260902104418 70 3 0.0 0.0 0.00 0.00 0.00 99
20260902103917 70 356 0.0 0.0 0.00 0.00 0.00 99
20260902103412 70 357 0.0 0.0 0.00 0.00 0.00 99
20260902102908 70 351 0.0 0.0 0.00 0.00 0.00 99
20260902102405 69 341 0.0 0.0 0.00 0.00 0.00 99
20260902101901 69 2 0.0 0.0 0.00 0.00 0.00 99
20260902101355 69 351 0.0 2.0 0.00 0.00 0.00 99
20260902100854 69 342 0.0 0.0 0.00 0.00 0.00 99
20260902100354 69 341 0.0 0.0 0.00 0.00 0.00 99
20260902095849 69 338 0.0 1.0 0.00 0.00 0.00 99
20260902095349 69 352 0.0 0.0 0.00 0.00 0.00 99
20260902094843 69 322 0.0 0.0 0.00 0.00 0.00 99
20260902094340 69 352 0.0 0.0 0.00 0.00 0.00 99
20260902093838 69 357 0.0 0.0 0.00 0.00 0.00 99
20260902093334 69 348 0.0 0.0 0.00 0.00 0.00 99
20260902092832 69 330 0.0 0.0 0.00 0.00 0.00 99
20260902092329 69 350 0.0 0.0 0.00 0.00 0.00 99
20260902091823 69 341 0.0 0.0 0.00 0.00 0.00 99
20260902091319 69 340 0.0 0.0 0.00 0.00 0.00 99
20260902090815 69 349 0.0 1.0 0.00 0.00 0.00 99
20260902090314 69 339 0.0 0.0 0.00 0.00 0.00 99
20260902085813 69 335 0.0 0.0 0.00 0.00 0.00 99
20260902085309 69 356 1.0 2.0 0.00 0.00 0.00 99
20260902084804 69 319 0.0 0.0 0.00 0.00 0.00 99
20260902084301 69 338 0.0 0.0 0.00 0.00 0.00 99
20260902083756 69 339 0.0 0.0 0.00 0.00 0.00 99
20260902083250 69 341 0.0 1.0 0.00 0.00 0.00 99
20260902082745 69 309 0.0 0.0 0.00 0.00 0.00 99
20260902082242 69 264 0.0 2.0 0.00 0.00 0.00 99
20260902081738 69 336 0.0 1.0 0.00 0.00 0.00 99
20260902081233 69 244 2.0 3.0 0.00 0.00 0.00 99
20260902080728 69 300 0.0 1.0 0.00 0.00 0.00 99
20260902080225 69 351 0.0 0.0 0.00 0.00 0.00 99
20260902075724 69 332 0.0 0.0 0.00 0.00 0.00 99
20260902075220 69 342 0.0 0.0 0.00 0.00 0.00 99
20260902074720 69 337 0.0 3.0 0.00 0.00 0.00 99
20260902074216 69 287 0.0 0.0 0.00 0.00 0.00 99
20260902073711 69 330 0.0 0.0 0.00 0.00 0.00 99
20260902073207 69 339 0.0 1.0 0.00 0.00 0.00 99
20260902072703 70 300 0.0 2.0 0.00 0.00 0.00 99
20260902072159 70 283 1.0 2.0 0.00 0.00 0.00 98
20260902071654 70 287 1.0 1.0 0.00 0.00 0.00 98
20260902071149 70 344 0.0 0.0 0.00 0.00 0.00 98
20260902070646 70 324 0.0 1.0 0.00 0.00 0.00 98
20260902070145 70 284 0.0 1.0 0.00 0.00 0.00 98
20260902065644 70 311 1.0 2.0 0.00 0.00 0.00 97
20260902065140 70 321 0.0 1.0 0.00 0.00 0.00 97
20260902064635 70 347 0.0 0.0 0.00 0.00 0.00 97
20260902064131 70 355 0.0 0.0 0.00 0.00 0.00 97
20260902063626 70 276 0.0 2.0 0.00 0.00 0.00 97
20260902063121 70 343 0.0 1.0 0.00 0.00 0.00 96
20260902062619 70 225 0.0 1.0 0.00 0.00 0.00 96
20260902062115 70 352 0.0 0.0 0.00 0.00 0.00 96
20260902061614 70 330 0.0 1.0 0.00 0.00 0.00 96
20260902061110 70 352 0.0 0.0 0.00 0.00 0.00 96
20260902060607 70 354 0.0 0.0 0.00 0.00 0.00 96
20260902055558 70 317 0.0 1.0 0.00 0.00 0.00 95
20260902055054 70 352 0.0 0.0 0.00 0.00 0.00 95
20260902054548 70 265 0.0 2.0 0.00 0.00 0.00 95
20260902054044 70 328 0.0 0.0 0.00 0.00 0.00 95
20260902053539 70 356 0.0 0.0 0.00 0.00 0.00 95
20260902053039 70 349 0.0 0.0 0.00 0.00 0.00 95
20260902052533 70 349 0.0 0.0 0.00 0.00 0.00 95
20260902052030 70 355 0.0 0.0 0.00 0.00 0.00 95
20260902051529 70 342 0.0 1.0 0.00 0.00 0.00 95
20260902051028 70 342 0.0 0.0 0.00 0.00 0.00 95
20260902050523 70 347 0.0 0.0 0.00 0.00 0.00 95
20260902050018 70 354 0.0 0.0 0.00 0.00 0.00 96
20260902045513 70 353 0.0 0.0 0.00 0.00 0.00 96
20260902045010 70 349 0.0 0.0 0.00 0.00 0.00 96
20260902044504 70 340 0.0 0.0 0.00 0.00 0.00 96
20260902044000 70 359 0.0 0.0 0.00 0.00 0.00 96
20260902043455 69 347 0.0 0.0 0.00 0.00 0.00 97
20260902042950 69 355 0.0 0.0 0.00 0.00 0.00 97
20260902042449 69 352 0.0 0.0 0.00 0.00 0.00 97
20260902041944 69 352 0.0 0.0 0.00 0.00 0.00 97
20260902041439 69 2 0.0 0.0 0.00 0.00 0.00 97
20260902040938 69 351 0.0 0.0 0.00 0.00 0.00 98
20260902040433 69 348 0.0 0.0 0.00 0.00 0.00 98
20260902035932 69 314 0.0 0.0 0.00 0.00 0.00 98
20260902035427 69 349 0.0 1.0 0.00 0.00 0.00 98
20260902034927 69 354 0.0 0.0 0.00 0.00 0.00 98
20260902034422 69 354 0.0 0.0 0.00 0.00 0.00 98
20260902033921 69 345 0.0 0.0 0.00 0.00 0.00 98
20260902033415 69 351 0.0 0.0 0.00 0.00 0.00 98
20260902032914 69 344 0.0 1.0 0.00 0.00 0.00 98
20260902032408 68 356 0.0 1.0 0.00 0.00 0.00 98
20260902031903 68 7 0.0 0.0 0.00 0.00 0.00 98
20260902031359 68 351 0.0 0.0 0.00 0.00 0.00 98
20260902030855 68 337 0.0 0.0 0.00 0.00 0.00 98
20260902030349 68 235 0.0 2.0 0.00 0.00 0.00 98
20260902025848 68 340 0.0 0.0 0.00 0.00 0.00 99
20260902025344 68 358 0.0 0.0 0.00 0.00 0.00 99
20260902024838 68 322 0.0 0.0 0.00 0.00 0.00 99
20260902024334 68 324 0.0 2.0 0.00 0.00 0.00 99
20260902023829 68 257 1.0 2.0 0.00 0.00 0.00 99
20260902023325 68 327 0.0 2.0 0.00 0.00 0.00 99
20260902022823 68 233 0.0 0.0 0.00 0.00 0.00 99
20260902022319 68 251 0.0 1.0 0.00 0.00 0.00 99
20260902021815 68 328 2.0 3.0 0.00 0.00 0.00 98
20260902021309 68 277 1.0 3.0 0.00 0.00 0.00 98
20260902020805 68 293 1.0 3.0 0.00 0.00 0.00 98
20260902020301 68 291 1.0 6.0 0.00 0.00 0.00 98
20260902015756 68 241 3.0 5.0 0.00 0.00 0.00 98
20260902015252 68 331 1.0 2.0 0.00 0.00 0.00 98
20260902014748 69 279 0.0 3.0 0.00 0.00 0.00 98
20260902014244 69 357 0.0 1.0 0.00 0.00 0.00 98
20260902013743 69 300 1.0 3.0 0.00 0.00 0.00 98
20260902013238 69 237 1.0 2.0 0.00 0.00 0.00 97
20260902012733 69 276 2.0 3.0 0.00 0.00 0.00 97
20260902012230 69 298 0.0 3.0 0.00 0.00 0.00 97
20260902011724 69 318 1.0 1.0 0.00 0.00 0.00 97
20260902011223 69 339 2.0 3.0 0.00 0.00 0.00 96
20260902010718 69 218 3.0 3.0 0.00 0.00 0.00 96
20260902010214 69 257 1.0 1.0 0.00 0.00 0.00 96
20260902005711 69 276 1.0 3.0 0.00 0.00 0.00 96
20260902005207 70 245 2.0 2.0 0.00 0.00 0.00 96
20260902004702 70 325 0.0 1.0 0.00 0.00 0.00 96
20260902004202 70 331 0.0 1.0 0.00 0.00 0.00 96
20260902003652 70 236 2.0 5.0 0.00 0.00 0.00 95
20260902003147 70 281 0.0 2.0 0.00 0.00 0.00 95
20260902002642 70 198 1.0 3.0 0.00 0.00 0.00 95
20260902002136 71 197 1.0 2.0 0.00 0.00 0.00 94